Find Starlink 3073

NORAD ID: 49135 Int'l Des: 2021-082 Owner: SPXS Country: US Constellation: starlink operational
LEOCIRCULAR

Live-Position

3D-Globus wird geladen...

Über Starlink 3073

Beschreibung wird geladen...

Nächste Überflüge

Passes for default location (London). Set your location on the main map for personalized predictions.

Höhenverlauf

Loading altitude history...

Zweizeiliger Elementsatz

1 49135U 21082F 26121.69587493 .00000050 00000-0 11953-4 0 9996
2 49135 69.9991 120.7889 0003097 280.9120 79.1691 14.98331516254918
Epoch: 1. Mai 2026 • Age: 8 hours

Aktueller Status

Höhe 574.7 km
Geschwindigkeit 7.58 km/s
Subsatellitenpunkt 22.07°N, 103.83°W
Startdatum 14. Sept. 2021
Alter 4.6 years
Typ internet

Technische Details

Klassifizierung Payload
Masse 297.00 kg
Trockenmasse 275.00 kg
Gesamtmasse 297.00 kg
Länge 0.20 m
Durchmesser 2.80 m
Spannweite 9.00 m
Form Box + pan
Hersteller SPXS
Bus-Typ Starlink
Phasenstatus In Orbit
Besitzer/Staat SPXS/US

Most Searched